Time,TemperatureF,DewpointF,PressureIn,WindDirection,WindDirectionDegrees,WindSpeedMPH,WindSpeedGustMPH,Humidity,HourlyPrecipIn,Conditions,Clouds,dailyrainin,SoftwareType,DateUTC
2013-03-26 00:06:00,51.0,47.0,29.95,NNW,338,8.0,18.0,86,0.00,,,-99.99,Weather View 32 v70,2013-03-26 07:06:00,
2013-03-26 00:21:00,50.0,46.3,29.95,North,0,7.0,18.0,87,0.00,,,-99.99,Weather View 32 v70,2013-03-26 07:21:00,
2013-03-26 00:36:00,50.0,46.6,29.95,NNW,338,0.0,18.0,88,0.00,,,-99.99,Weather View 32 v70,2013-03-26 07:36:00,
2013-03-26 00:38:00,50.0,46.6,29.95,NNW,338,0.0,18.0,88,0.00,,,-99.99,Weather View 32 v70,2013-03-26 07:38:00,
2013-03-26 00:51:00,50.0,46.6,29.95,North,0,0.0,16.0,88,0.00,,,-99.99,Weather View 32 v70,2013-03-26 07:51:00,
2013-03-26 01:06:00,50.0,46.6,29.94,North,0,0.0,13.0,88,0.00,,,-99.99,Weather View 32 v70,2013-03-26 08:06:00,
2013-03-26 01:21:00,50.0,46.6,29.94,NW,315,0.0,11.0,88,0.00,,,-99.99,Weather View 32 v70,2013-03-26 08:21:00,
2013-03-26 01:36:00,50.0,46.6,29.93,North,0,0.0,6.0,88,0.00,,,-99.99,Weather View 32 v70,2013-03-26 08:36:00,
2013-03-26 01:38:00,50.0,46.6,29.93,North,0,0.0,6.0,88,0.00,,,-99.99,Weather View 32 v70,2013-03-26 08:38:00,
2013-03-26 01:51:00,50.0,46.3,29.93,North,0,0.0,8.0,87,0.00,,,-99.99,Weather View 32 v70,2013-03-26 08:51:00,
2013-03-26 02:06:00,50.0,46.3,29.93,NNW,338,0.0,8.0,87,0.00,,,-99.99,Weather View 32 v70,2013-03-26 09:06:00,
2013-03-26 02:21:00,49.0,45.6,29.93,NNE,22,0.0,8.0,88,0.00,,,-99.99,Weather View 32 v70,2013-03-26 09:21:00,
2013-03-26 02:36:00,48.0,44.9,29.93,North,0,0.0,8.0,89,0.00,,,-99.99,Weather View 32 v70,2013-03-26 09:36:00,
2013-03-26 02:39:00,48.0,44.9,29.93,North,0,0.0,8.0,89,0.00,,,-99.99,Weather View 32 v70,2013-03-26 09:39:00,
2013-03-26 02:51:00,47.0,44.5,29.92,NW,315,0.0,7.0,91,0.00,,,-99.99,Weather View 32 v70,2013-03-26 09:51:00,
2013-03-26 03:06:00,47.0,45.1,29.92,NNW,338,0.0,0.0,93,0.00,,,-99.99,Weather View 32 v70,2013-03-26 10:06:00,
2013-03-26 03:21:00,47.0,45.4,29.91,NNE,22,0.0,0.0,94,0.00,,,-99.99,Weather View 32 v70,2013-03-26 10:21:00,
2013-03-26 03:36:00,47.0,45.4,29.91,North,0,0.0,0.0,94,0.00,,,-99.99,Weather View 32 v70,2013-03-26 10:36:00,
2013-03-26 03:39:00,47.0,45.4,29.91,North,0,0.0,0.0,94,0.00,,,-99.99,Weather View 32 v70,2013-03-26 10:39:00,
2013-03-26 03:51:00,47.0,45.4,29.91,North,0,0.0,0.0,94,0.00,,,-99.99,Weather View 32 v70,2013-03-26 10:51:00,
2013-03-26 04:06:00,47.0,45.4,29.91,North,0,0.0,0.0,94,0.00,,,-99.99,Weather View 32 v70,2013-03-26 11:06:00,
2013-03-26 04:21:00,47.0,45.4,29.90,NNE,22,0.0,0.0,94,0.00,,,-99.99,Weather View 32 v70,2013-03-26 11:21:00,
2013-03-26 04:30:00,46.0,44.4,29.90,North,0,0.0,0.0,94,0.00,,,-99.99,Weather View 32 v70,2013-03-26 11:30:00,
2013-03-26 04:36:00,46.0,44.4,29.90,North,0,0.0,0.0,94,0.00,,,-99.99,Weather View 32 v70,2013-03-26 11:36:00,
2013-03-26 04:51:00,47.0,45.6,29.90,North,0,0.0,0.0,95,0.00,,,-99.99,Weather View 32 v70,2013-03-26 11:51:00,
2013-03-26 05:06:00,47.0,45.6,29.90,NNE,22,0.0,0.0,95,0.00,,,-99.99,Weather View 32 v70,2013-03-26 12:06:00,
2013-03-26 05:21:00,47.0,45.6,29.90,North,0,0.0,0.0,95,0.00,,,-99.99,Weather View 32 v70,2013-03-26 12:21:00,
2013-03-26 05:30:00,47.0,45.6,29.90,NNE,22,0.0,0.0,95,0.00,,,-99.99,Weather View 32 v70,2013-03-26 12:30:00,
2013-03-26 05:36:00,47.0,45.6,29.90,NNE,22,0.0,0.0,95,0.00,,,-99.99,Weather View 32 v70,2013-03-26 12:36:00,
2013-03-26 05:51:00,47.0,45.6,29.90,NNE,22,0.0,0.0,95,0.00,,,-99.99,Weather View 32 v70,2013-03-26 12:51:00,
2013-03-26 06:06:00,46.0,44.6,29.90,NNE,22,0.0,0.0,95,0.00,,,-99.99,Weather View 32 v70,2013-03-26 13:06:00,
2013-03-26 06:21:00,46.0,44.6,29.90,North,0,0.0,0.0,95,0.00,,,-99.99,Weather View 32 v70,2013-03-26 13:21:00,
2013-03-26 06:30:00,46.0,44.9,29.90,North,0,0.0,0.0,96,0.00,,,-99.99,Weather View 32 v70,2013-03-26 13:30:00,
2013-03-26 06:36:00,46.0,44.9,29.90,North,0,0.0,0.0,96,0.00,,,-99.99,Weather View 32 v70,2013-03-26 13:36:00,
2013-03-26 06:51:00,46.0,44.9,29.90,NNW,338,0.0,0.0,96,0.00,,,-99.99,Weather View 32 v70,2013-03-26 13:51:00,
2013-03-26 07:06:00,47.0,45.9,29.90,North,0,0.0,0.0,96,0.00,,,-99.99,Weather View 32 v70,2013-03-26 14:06:00,
2013-03-26 07:21:00,47.0,45.6,29.91,North,0,0.0,0.0,95,0.00,,,-99.99,Weather View 32 v70,2013-03-26 14:21:00,
2013-03-26 07:30:00,47.0,45.6,29.91,NW,315,0.0,0.0,95,0.00,,,-99.99,Weather View 32 v70,2013-03-26 14:30:00,
2013-03-26 07:36:00,47.0,45.6,29.91,NW,315,0.0,0.0,95,0.00,,,-99.99,Weather View 32 v70,2013-03-26 14:36:00,
2013-03-26 07:51:00,47.0,45.9,29.91,NNE,22,0.0,0.0,96,0.00,,,-99.99,Weather View 32 v70,2013-03-26 14:51:00,
2013-03-26 08:06:00,48.0,46.4,29.91,NNW,338,0.0,0.0,94,0.00,,,-99.99,Weather View 32 v70,2013-03-26 15:06:00,
2013-03-26 08:21:00,49.0,47.1,29.91,North,0,0.0,0.0,93,0.00,,,-99.99,Weather View 32 v70,2013-03-26 15:21:00,
2013-03-26 08:30:00,50.0,47.8,29.91,NW,315,0.0,0.0,92,0.00,,,-99.99,Weather View 32 v70,2013-03-26 15:30:00,
2013-03-26 08:36:00,50.0,47.8,29.91,NW,315,0.0,0.0,92,0.00,,,-99.99,Weather View 32 v70,2013-03-26 15:36:00,
2013-03-26 08:51:00,50.0,47.2,29.91,NNE,22,0.0,0.0,90,0.00,,,-99.99,Weather View 32 v70,2013-03-26 15:51:00,
2013-03-26 09:21:00,52.0,47.6,29.92,North,0,0.0,1.0,85,0.00,,,-99.99,Weather View 32 v70,2013-03-26 16:21:00,
2013-03-26 09:30:00,52.0,47.6,29.92,North,0,0.0,1.0,85,0.00,,,-99.99,Weather View 32 v70,2013-03-26 16:30:00,
2013-03-26 09:36:00,52.0,47.6,29.92,North,0,0.0,1.0,85,0.00,,,-99.99,Weather View 32 v70,2013-03-26 16:36:00,
2013-03-26 09:51:00,53.0,48.3,29.92,North,0,0.0,4.0,84,0.00,,,-99.99,Weather View 32 v70,2013-03-26 16:51:00,
2013-03-26 10:21:00,54.0,48.0,29.93,North,0,0.0,4.0,80,0.00,,,-99.99,Weather View 32 v70,2013-03-26 17:21:00,
2013-03-26 10:30:00,56.0,48.2,29.93,NNW,338,0.0,7.0,75,0.00,,,-99.99,Weather View 32 v70,2013-03-26 17:30:00,
2013-03-26 10:36:00,56.0,48.2,29.93,NNW,338,0.0,7.0,75,0.00,,,-99.99,Weather View 32 v70,2013-03-26 17:36:00,
2013-03-26 10:51:00,56.0,47.4,29.93,North,0,0.0,7.0,73,0.00,,,-99.99,Weather View 32 v70,2013-03-26 17:51:00,
2013-03-26 11:06:00,57.0,47.7,29.93,NNE,22,0.0,10.0,71,0.00,,,-99.99,Weather View 32 v70,2013-03-26 18:06:00,
2013-03-26 11:21:00,58.0,48.6,29.94,North,0,0.0,10.0,71,0.00,,,-99.99,Weather View 32 v70,2013-03-26 18:21:00,
2013-03-26 11:30:00,58.0,48.6,29.93,NNE,22,0.0,10.0,71,0.00,,,-99.99,Weather View 32 v70,2013-03-26 18:30:00,
2013-03-26 11:36:00,58.0,48.6,29.93,NNE,22,0.0,10.0,71,0.00,,,-99.99,Weather View 32 v70,2013-03-26 18:36:00,
2013-03-26 11:51:00,59.0,48.8,29.94,NNE,22,0.0,10.0,69,0.00,,,-99.99,Weather View 32 v70,2013-03-26 18:51:00,
2013-03-26 12:06:00,60.0,48.6,29.94,NNE,22,0.0,8.0,66,0.00,,,-99.99,Weather View 32 v70,2013-03-26 19:06:00,
2013-03-26 12:21:00,60.0,49.4,29.94,NNE,22,0.0,8.0,68,0.00,,,-99.99,Weather View 32 v70,2013-03-26 19:21:00,
2013-03-26 12:30:00,60.0,49.8,29.94,NNE,22,0.0,10.0,69,0.00,,,-99.99,Weather View 32 v70,2013-03-26 19:30:00,
2013-03-26 12:36:00,60.0,49.8,29.94,NNE,22,0.0,10.0,69,0.00,,,-99.99,Weather View 32 v70,2013-03-26 19:36:00,
2013-03-26 13:06:00,62.0,50.9,29.94,NNE,22,0.0,11.0,67,0.00,,,-99.99,Weather View 32 v70,2013-03-26 20:06:00,
2013-03-26 13:30:00,63.0,51.8,29.94,NNW,338,3.0,13.0,67,0.00,,,-99.99,Weather View 32 v70,2013-03-26 20:30:00,
2013-03-26 13:36:00,63.0,51.8,29.94,NNW,338,3.0,13.0,67,0.00,,,-99.99,Weather View 32 v70,2013-03-26 20:36:00,
2013-03-26 13:51:00,62.0,49.2,29.94,North,0,0.0,13.0,63,0.00,,,-99.99,Weather View 32 v70,2013-03-26 20:51:00,
2013-03-26 14:06:00,62.0,49.2,29.94,North,0,5.0,13.0,63,0.00,,,-99.99,Weather View 32 v70,2013-03-26 21:06:00,
2013-03-26 14:21:00,63.0,50.2,29.94,NNE,22,0.0,13.0,63,0.00,,,-99.99,Weather View 32 v70,2013-03-26 21:21:00,
2013-03-26 14:30:00,63.0,49.7,29.93,NNE,22,5.0,13.0,62,0.00,,,-99.99,Weather View 32 v70,2013-03-26 21:30:00,
2013-03-26 14:36:00,63.0,49.7,29.93,NNE,22,5.0,13.0,62,0.00,,,-99.99,Weather View 32 v70,2013-03-26 21:36:00,
2013-03-26 14:51:00,64.0,50.2,29.93,North,0,8.0,11.0,61,0.00,,,-99.99,Weather View 32 v70,2013-03-26 21:51:00,
2013-03-26 15:21:00,65.0,50.7,29.93,North,0,2.0,14.0,60,0.00,,,-99.99,Weather View 32 v70,2013-03-26 22:21:00,
2013-03-26 15:36:00,65.0,51.2,29.93,NNE,22,0.0,14.0,61,0.00,,,-99.99,Weather View 32 v70,2013-03-26 22:36:00,
2013-03-26 15:51:00,64.0,50.2,29.93,North,0,3.0,14.0,61,0.00,,,-99.99,Weather View 32 v70,2013-03-26 22:51:00,
2013-03-26 16:06:00,65.0,50.3,29.93,North,0,3.0,11.0,59,0.00,,,-99.99,Weather View 32 v70,2013-03-26 23:06:00,
2013-03-26 16:21:00,67.0,51.7,29.93,NW,315,0.0,11.0,58,0.00,,,-99.99,Weather View 32 v70,2013-03-26 23:21:00,
2013-03-26 16:30:00,68.0,50.2,29.93,North,0,0.0,11.0,53,0.00,,,-99.99,Weather View 32 v70,2013-03-26 23:30:00,
2013-03-26 16:36:00,68.0,50.2,29.93,North,0,0.0,11.0,53,0.00,,,-99.99,Weather View 32 v70,2013-03-26 23:36:00,
2013-03-26 16:51:00,68.0,50.2,29.93,North,0,6.0,11.0,53,0.00,,,-99.99,Weather View 32 v70,2013-03-26 23:51:00,
2013-03-26 17:06:00,67.0,48.2,29.93,North,0,8.0,16.0,51,0.00,,,-99.99,Weather View 32 v70,2013-03-27 00:06:00,
2013-03-26 17:21:00,66.0,46.8,29.93,NNE,22,11.0,16.0,50,0.00,,,-99.99,Weather View 32 v70,2013-03-27 00:21:00,
2013-03-26 17:30:00,66.0,48.8,29.93,North,0,7.0,16.0,54,0.00,,,-99.99,Weather View 32 v70,2013-03-27 00:30:00,
2013-03-26 17:36:00,66.0,48.8,29.93,North,0,7.0,16.0,54,0.00,,,-99.99,Weather View 32 v70,2013-03-27 00:36:00,
2013-03-26 17:51:00,65.0,48.9,29.93,North,0,10.0,16.0,56,0.00,,,-99.99,Weather View 32 v70,2013-03-27 00:51:00,
2013-03-26 18:06:00,64.0,48.4,29.94,NNW,338,7.0,16.0,57,0.00,,,-99.99,Weather View 32 v70,2013-03-27 01:06:00,
2013-03-26 18:21:00,63.0,48.4,29.94,North,0,10.0,16.0,59,0.00,,,-99.99,Weather View 32 v70,2013-03-27 01:21:00,
2013-03-26 18:30:00,60.0,48.2,29.95,NNE,22,10.0,16.0,65,0.00,,,-99.99,Weather View 32 v70,2013-03-27 01:30:00,
2013-03-26 18:36:00,60.0,48.2,29.95,NNE,22,10.0,16.0,65,0.00,,,-99.99,Weather View 32 v70,2013-03-27 01:36:00,
2013-03-26 19:06:00,58.0,48.2,29.96,NNE,22,5.0,16.0,70,0.00,,,-99.99,Weather View 32 v70,2013-03-27 02:06:00,
2013-03-26 19:21:00,58.0,48.6,29.95,NNE,22,5.0,15.0,71,0.00,,,-99.99,Weather View 32 v70,2013-03-27 02:21:00,
2013-03-26 19:30:00,57.0,47.7,29.95,North,0,8.0,15.0,71,0.00,,,-99.99,Weather View 32 v70,2013-03-27 02:30:00,
2013-03-26 19:36:00,57.0,47.7,29.95,North,0,8.0,15.0,71,0.00,,,-99.99,Weather View 32 v70,2013-03-27 02:36:00,
2013-03-26 19:51:00,56.0,47.4,29.96,NNE,22,8.0,13.0,73,0.00,,,-99.99,Weather View 32 v70,2013-03-27 02:51:00,
2013-03-26 20:06:00,55.0,46.8,29.96,North,0,0.0,13.0,74,0.00,,,-99.99,Weather View 32 v70,2013-03-27 03:06:00,
2013-03-26 20:21:00,54.0,45.2,29.96,North,0,0.0,13.0,72,0.00,,,-99.99,Weather View 32 v70,2013-03-27 03:21:00,
2013-03-26 20:30:00,54.0,46.6,29.95,NNW,338,0.0,12.0,76,0.00,,,-99.99,Weather View 32 v70,2013-03-27 03:30:00,
2013-03-26 20:36:00,54.0,46.6,29.95,NNW,338,0.0,12.0,76,0.00,,,-99.99,Weather View 32 v70,2013-03-27 03:36:00,
2013-03-26 20:51:00,54.0,47.3,29.95,North,0,10.0,13.0,78,0.00,,,-99.99,Weather View 32 v70,2013-03-27 03:51:00,
2013-03-26 21:06:00,53.0,47.3,29.95,North,0,5.0,13.0,81,0.00,,,-99.99,Weather View 32 v70,2013-03-27 04:06:00,
2013-03-26 21:21:00,53.0,47.6,29.95,North,0,8.0,13.0,82,0.00,,,-99.99,Weather View 32 v70,2013-03-27 04:21:00,
2013-03-26 21:30:00,53.0,48.0,29.94,North,0,9.0,14.0,83,0.00,,,-99.99,Weather View 32 v70,2013-03-27 04:30:00,
2013-03-26 21:36:00,53.0,48.0,29.94,North,0,9.0,14.0,83,0.00,,,-99.99,Weather View 32 v70,2013-03-27 04:36:00,
2013-03-26 21:51:00,53.0,48.0,29.94,North,0,5.0,14.0,83,0.00,,,-99.99,Weather View 32 v70,2013-03-27 04:51:00,
2013-03-26 22:06:00,53.0,48.6,29.95,NNE,22,0.0,14.0,85,0.00,,,-99.99,Weather View 32 v70,2013-03-27 05:06:00,
2013-03-26 22:21:00,51.0,47.6,29.95,NNE,22,0.0,14.0,88,0.00,,,-99.99,Weather View 32 v70,2013-03-27 05:21:00,
2013-03-26 22:30:00,51.0,47.9,29.95,NNW,338,0.0,14.0,89,0.00,,,-99.99,Weather View 32 v70,2013-03-27 05:30:00,
2013-03-26 22:36:00,51.0,47.9,29.95,NNW,338,0.0,14.0,89,0.00,,,-99.99,Weather View 32 v70,2013-03-27 05:36:00,
2013-03-26 22:51:00,51.0,48.5,29.94,North,0,0.0,9.0,91,0.00,,,-99.99,Weather View 32 v70,2013-03-27 05:51:00,
2013-03-26 23:06:00,52.0,49.4,29.94,NNE,22,0.0,3.0,91,0.00,,,-99.99,Weather View 32 v70,2013-03-27 06:06:00,
2013-03-26 23:30:00,52.0,47.9,29.94,North,0,0.0,5.0,86,0.00,,,-99.99,Weather View 32 v70,2013-03-27 06:30:00,
2013-03-26 23:36:00,52.0,47.9,29.94,North,0,0.0,5.0,86,0.00,,,-99.99,Weather View 32 v70,2013-03-27 06:36:00,
2013-03-26 23:51:00,52.0,48.2,29.94,NNE,22,0.0,5.0,87,0.00,,,-99.99,Weather View 32 v70,2013-03-27 06:51:00,